Terminal Aerodrome Forecast
Issued by NWS Omaha/Valley, NE

Home | Current Version | Previous Version | Text Only | Print | Product List | Glossary On
Versions: 1 2 3 4 5 6 7 8 9 10 11 12 13 14 15 16 17 18 19 20 21 22 23 24 25 26 27 28 29 30 31 32 33 34 35 36 37 38 39 40 41 42 43 44 45 46
000
FTUS43 KOAX 041720
TAFOMA
TAF
KOMA 041720Z 0418/0518 05008KT P6SM OVC120
      TEMPO 0418/0422 3SM -TSRA BKN035CB
     FM042200 05007KT P6SM OVC050
      TEMPO 0422/0502 2SM TSRA OVC025CB
     FM050700 08007KT P6SM OVC025
     FM051400 15007KT P6SM OVC050=

USA.gov is the U.S. government's official web portal to all federal, state and local government web resources and services.